EWG7620 EDDH-LGZA

Flight info

Callsign EWG7620
Flight time N/A
Altitude 35000
Route AMLUH2G AMLUH M852 DENIX DCT LARET DCT ARMUT DCT LAMSI DCT RODON DCT PITAS UN732 KRK UT321 ASTUS
Aircraft A319/M-SDE3FGHIRWY/LB1

Departure

Time 2026-05-05 07:57
Airport Hamburg Helmut Schmidt Airport (EDDH)

Arrival

Time N/A
Airport Zakynthos International Airport Dionysios Solomos (LGZA)
Time Latitude Longitude Altitude Speed Heading
2026-05-05 07:07 53.63294 10.00355 62 ft 0 kts 86°
2026-05-05 07:48 53.63294 10.00346 62 ft 2 kts 86°
2026-05-05 07:48 53.63293 10.00320 62 ft 2 kts 86°
2026-05-05 07:48 53.63292 10.00296 62 ft 2 kts 86°
2026-05-05 07:49 53.63291 10.00270 62 ft 2 kts 86°
2026-05-05 07:49 53.63293 10.00248 62 ft 2 kts 129°
2026-05-05 07:49 53.63303 10.00236 62 ft 0 kts 171°
2026-05-05 07:49 53.63309 10.00236 62 ft 1 kts 178°
2026-05-05 07:50 53.63311 10.00236 62 ft 0 kts 176°
2026-05-05 07:51 53.63304 10.00237 62 ft 3 kts 176°
2026-05-05 07:51 53.63247 10.00243 62 ft 12 kts 175°
2026-05-05 07:51 53.63135 10.00259 62 ft 17 kts 175°
2026-05-05 07:52 53.63015 10.00205 62 ft 19 kts 212°
2026-05-05 07:52 53.62923 10.00051 62 ft 19 kts 262°
2026-05-05 07:52 53.62897 9.99914 62 ft 3 kts 243°
2026-05-05 07:52 53.62883 9.99865 62 ft 5 kts 245°
2026-05-05 07:53 53.62862 9.99788 62 ft 8 kts 250°
2026-05-05 07:53 53.62893 9.99723 62 ft 8 kts 334°
2026-05-05 07:53 53.62904 9.99714 62 ft 0 kts 332°
2026-05-05 07:53 53.62905 9.99714 62 ft 0 kts 332°
2026-05-05 07:56 53.62906 9.99712 62 ft 0 kts 332°
2026-05-05 07:56 53.62935 9.99686 62 ft 18 kts 332°
2026-05-05 07:56 53.63280 9.99390 62 ft 91 kts 333°
2026-05-05 07:56 53.64036 9.98736 63 ft 151 kts 333°
2026-05-05 07:57 53.65052 9.97856 484 ft 166 kts 334°
2026-05-05 07:57 53.66040 9.96987 1269 ft 162 kts 336°
2026-05-05 07:57 53.67024 9.96157 2008 ft 161 kts 337°
2026-05-05 07:57 53.68064 9.95295 2527 ft 175 kts 337°
2026-05-05 07:58 53.69263 9.94707 3028 ft 188 kts 355°
2026-05-05 07:58 53.70638 9.94645 3482 ft 208 kts
2026-05-05 07:58 53.72111 9.94832 4139 ft 219 kts 19°
2026-05-05 07:58 53.73376 9.96209 4916 ft 224 kts 50°
2026-05-05 07:59 53.74056 9.98519 5722 ft 228 kts 79°
2026-05-05 07:59 53.74264 10.01209 6430 ft 236 kts 85°